DW3068 Weather Reports


Display with metric or nautical units.
time (UTC)temp
F
wind
direction
speed
MPH
gust
MPH
rain 1hr
in
rain 24hr
in
rain mn
in
humidity
%
barometer
mb
20191208002501 39 309 1.0 3.0 0.00 0.27 0.00 94 1023.2
20191208000502 40 241 2.0 7.0 0.00 0.27 0.00 94 1023.3
20191208000003 40 220 1.0 2.0 0.00 0.27 0.00 94 1023.0
20191207235503 40 220 1.0 2.0 0.00 0.27 0.00 94 1022.7
20191207233503 40 326 1.0 2.0 0.00 0.27 0.00 94 1022.8
20191207232002 40 7 2.0 3.0 0.00 0.27 0.00 94 1022.9
20191207230017 40 316 1.0 3.0 0.00 0.27 0.00 94 1023.0
20191207225503 40 323 1.0 2.0 0.00 0.27 0.27 94 1023.0
20191207223502 40 257 1.0 2.0 0.00 0.27 0.27 94 1023.1
20191207223004 40 257 0.0 2.0 0.00 0.27 0.27 94 1023.2
20191207222502 40 257 0.0 2.0 0.00 0.27 0.27 94 1023.1
20191207222003 40 255 1.0 3.0 0.00 0.27 0.27 94 1023.2
20191207221502 40 312 1.0 3.0 0.00 0.27 0.27 94 1023.1
20191207221001 40 356 1.0 3.0 0.00 0.27 0.27 94 1023.0
20191207220502 40 10 1.0 3.0 0.00 0.27 0.27 94 1023.1
20191207215504 40 27 1.0 3.0 0.00 0.27 0.27 94 1023.0
20191207214002 40 64 1.0 3.0 0.00 0.27 0.27 94 1023.0
20191207213502 40 69 0.0 2.0 0.00 0.27 0.27 94 1022.9
20191207213002 40 69 0.0 1.0 0.00 0.27 0.27 94 1023.0
20191207212501 40 69 0.0 2.0 0.00 0.27 0.27 94 1022.9
20191207210004 40 189 0.0 2.0 0.00 0.27 0.27 94 1022.9
20191207205503 40 198 0.0 2.0 0.00 0.27 0.27 94 1023.1
20191207205004 40 198 0.0 2.0 0.00 0.27 0.27 94 1023.0
20191207204504 40 197 0.0 1.0 0.00 0.27 0.27 94 1023.1
20191207204004 40 198 1.0 2.0 0.00 0.27 0.27 94 1023.0
20191207203503 40 197 1.0 2.0 0.00 0.27 0.27 94 1023.0
20191207203003 40 196 1.0 3.0 0.00 0.27 0.27 94 1023.0
20191207202503 40 194 1.0 3.0 0.00 0.27 0.27 94 1022.9
20191207200004 40 96 1.0 2.0 0.00 0.27 0.27 94 1022.8
20191207195503 40 94 0.0 2.0 0.00 0.27 0.27 94 1022.8
20191207195004 40 91 0.0 1.0 0.00 0.27 0.27 94 1022.9
20191207194504 40 91 0.0 1.0 0.00 0.27 0.27 94 1023.0
20191207193503 40 91 0.0 2.0 0.00 0.27 0.27 93 1023.0
20191207192502 40 91 0.0 1.0 0.00 0.27 0.27 93 1023.0
20191207191004 40 96 1.0 3.0 0.00 0.27 0.27 93 1023.0
20191207190503 40 102 1.0 3.0 0.00 0.27 0.27 93 1022.8
20191207190003 40 119 1.0 2.0 0.00 0.27 0.27 94 1022.8
20191207185501 40 124 1.0 2.0 0.00 0.27 0.27 94 1022.9
20191207184003 40 88 1.0 2.0 0.00 0.27 0.27 93 1023.0
20191207183504 40 53 1.0 2.0 0.00 0.27 0.27 93 1022.8
20191207183004 40 53 1.0 2.0 0.00 0.27 0.27 93 1022.9
20191207181504 40 45 0.0 2.0 0.00 0.27 0.27 93 1022.7
20191207180003 40 39 1.0 3.0 0.00 0.27 0.27 92 1022.5
20191207175504 40 56 1.0 3.0 0.00 0.27 0.27 92 1022.5
20191207174504 40 165 0.0 1.0 0.00 0.27 0.27 92 1022.4
20191207174005 40 165 0.0 1.0 0.00 0.27 0.27 92 1022.4
20191207173501 40 164 1.0 2.0 0.00 0.27 0.27 92 1022.5
20191207173002 40 156 1.0 2.0 0.00 0.27 0.27 92 1022.2
20191207172504 41 127 1.0 3.0 0.00 0.27 0.27 92 1022.3
20191207171505 41 135 1.0 2.0 0.00 0.27 0.27 92 1022.3
20191207170505 41 120 1.0 3.0 0.00 0.27 0.27 92 1022.4
20191207165504 41 107 1.0 2.0 0.00 0.27 0.27 92 1022.3
20191207164004 41 103 0.0 2.0 0.00 0.27 0.27 91 1022.3
20191207163502 41 0 0.0 0.0 0.00 0.27 0.27 91 1022.3
20191207162502 42 100 0.0 1.0 0.00 0.27 0.27 91 1022.2
20191207162003 42 100 0.0 1.0 0.00 0.27 0.27 91 1022.3
20191207161504 42 100 0.0 1.0 0.00 0.27 0.27 90 1022.3
20191207161005 42 114 1.0 2.0 0.00 0.27 0.27 90 1022.2
20191207160502 42 134 1.0 4.0 0.01 0.27 0.27 90 1022.2
20191207160004 42 140 2.0 4.0 0.01 0.27 0.27 90 1021.9
20191207155504 42 122 2.0 4.0 0.01 0.27 0.27 90 1022.0
20191207155004 43 55 1.0 3.0 0.01 0.27 0.27 90 1021.8
20191207154003 43 1 0.0 1.0 0.01 0.27 0.27 89 1021.8
20191207153503 43 1 1.0 3.0 0.01 0.27 0.27 90 1021.8
20191207153004 43 350 2.0 3.0 0.01 0.27 0.27 90 1021.7
20191207151503 42 321 1.0 3.0 0.01 0.27 0.27 90 1021.7
20191207151004 42 319 2.0 3.0 0.01 0.27 0.27 90 1021.7
20191207145503 43 315 1.0 3.0 0.00 0.26 0.26 90 1021.3
20191207145004 43 311 1.0 3.0 0.00 0.26 0.26 89 1021.5
20191207144506 43 310 1.0 3.0 0.00 0.26 0.26 90 1021.4
20191207144004 43 310 0.0 2.0 0.00 0.26 0.26 89 1021.5
20191207143508 43 310 0.0 2.0 0.00 0.26 0.26 90 1021.4
20191207141505 43 217 1.0 2.0 0.00 0.26 0.26 89 1021.4
20191207141005 43 217 0.0 2.0 0.00 0.26 0.26 89 1021.4
20191207140505 43 217 0.0 1.0 0.00 0.26 0.26 89 1021.5
20191207135505 43 217 1.0 2.0 0.00 0.26 0.26 90 1021.5
20191207135005 43 201 1.0 3.0 0.00 0.26 0.26 90 1021.5
20191207134004 42 89 0.0 2.0 0.00 0.26 0.26 90 1021.4
20191207131505 42 94 1.0 3.0 0.00 0.26 0.26 91 1021.3
20191207125009 41 123 2.0 3.0 0.00 0.26 0.26 91 1021.1
20191207124505 41 126 2.0 3.0 0.00 0.26 0.26 91 1021.0
20191207124005 40 132 2.0 4.0 0.00 0.26 0.26 92 1021.0
20191207121504 40 208 1.0 3.0 0.00 0.26 0.26 92 1021.4
20191207121005 40 219 1.0 4.0 0.00 0.26 0.26 92 1021.5
20191207120007 40 197 2.0 4.0 0.00 0.26 0.26 92 1021.4
20191207114004 40 119 3.0 6.0 0.00 0.26 0.26 92 1021.3
20191207113506 39 112 3.0 6.0 0.00 0.26 0.26 92 1021.3
20191207113004 39 124 2.0 5.0 0.00 0.26 0.26 92 1021.4
20191207112004 39 192 2.0 4.0 0.00 0.26 0.26 92 1021.7
20191207111005 39 201 1.0 3.0 0.00 0.26 0.26 93 1021.7
20191207110510 39 196 1.0 2.0 0.00 0.26 0.26 93 1021.7
20191207104503 39 196 1.0 2.0 0.00 0.26 0.26 92 1021.7
20191207104006 39 192 1.0 3.0 0.00 0.26 0.26 92 1021.8
20191207103004 38 214 1.0 3.0 0.01 0.26 0.26 92 1021.9
20191207102506 39 219 1.0 3.0 0.01 0.26 0.26 92 1022.2
20191207102004 39 207 1.0 3.0 0.01 0.26 0.26 92 1022.0
20191207101502 39 188 1.0 3.0 0.02 0.26 0.26 92 1022.2
20191207095509 38 157 1.0 3.0 0.02 0.26 0.26 93 1022.2
20191207095011 38 63 1.0 3.0 0.02 0.26 0.26 93 1022.2
20191207094507 38 56 2.0 3.0 0.03 0.26 0.26 93 1022.2
20191207094007 38 49 2.0 3.0 0.03 0.26 0.26 93 1022.3
20191207093506 37 41 2.0 3.0 0.04 0.26 0.26 93 1022.3
20191207092505 37 170 0.0 2.0 0.04 0.25 0.25 93 1022.5
20191207091515 37 107 0.0 2.0 0.06 0.24 0.24 93 1022.7
20191207091008 36 78 0.0 2.0 0.07 0.24 0.24 93 1022.8
20191207090510 36 56 0.0 2.0 0.08 0.24 0.24 93 1022.7
20191207090009 36 51 1.0 3.0 0.09 0.24 0.24 93 1022.7
20191207085506 35 45 1.0 3.0 0.09 0.24 0.24 92 1022.7
20191207084005 35 59 2.0 5.0 0.10 0.23 0.23 92 1022.9
20191207083006 35 240 1.0 3.0 0.10 0.21 0.21 92 1023.2
20191207082009 35 253 2.0 4.0 0.10 0.20 0.20 92 1023.2
20191207081508 35 274 2.0 4.0 0.09 0.19 0.19 92 1023.3
20191207081004 35 292 1.0 4.0 0.09 0.17 0.17 92 1023.2
20191207080007 35 297 1.0 4.0 0.07 0.16 0.16 91 1023.0
20191207075506 35 326 2.0 4.0 0.06 0.15 0.15 91 1023.2
20191207074505 35 217 1.0 3.0 0.05 0.13 0.13 91 1023.0
20191207073506 35 189 1.0 2.0 0.03 0.12 0.12 91 1023.0
20191207072506 35 189 0.0 1.0 0.01 0.09 0.09 91 1022.9
20191207072008 35 189 1.0 3.0 0.01 0.09 0.09 91 1022.9
20191207071507 35 189 1.0 3.0 0.01 0.09 0.09 91 1022.8
20191207071005 35 189 1.0 3.0 0.00 0.09 0.09 91 1022.8
20191207070506 35 189 1.0 3.0 0.00 0.09 0.09 91 1022.7
20191207070006 35 189 0.0 2.0 0.00 0.09 0.09 91 1022.6
20191207065505 35 189 1.0 3.0 0.00 0.09 0.09 91 1022.5
20191207065005 35 189 1.0 3.0 0.00 0.09 0.09 91 1022.4
20191207064506 35 189 1.0 3.0 0.00 0.09 0.09 91 1022.4
20191207063508 35 189 1.0 3.0 0.00 0.09 0.09 92 1022.4
20191207063008 35 176 1.0 4.0 0.01 0.09 0.09 92 1022.3
20191207062507 35 158 1.0 4.0 0.01 0.09 0.09 92 1022.2
20191207062004 35 158 1.0 4.0 0.01 0.09 0.09 92 1022.1
20191207061008 35 214 1.0 3.0 0.01 0.09 0.09 92 1022.1
20191207060507 35 223 1.0 2.0 0.01 0.09 0.09 91 1022.0
20191207060006 35 218 1.0 3.0 0.01 0.09 0.09 91 1022.1
20191207054507 35 206 0.0 2.0 0.01 0.09 0.09 91 1022.1
20191207053506 35 206 1.0 2.0 0.02 0.09 0.09 91 1022.2
20191207052507 35 206 0.0 1.0 0.01 0.08 0.08 91 1022.1
20191207051505 35 218 1.0 4.0 0.02 0.08 0.08 91 1022.1
20191207045007 35 208 0.0 1.0 0.04 0.08 0.08 91 1021.9
20191207044505 35 208 0.0 2.0 0.05 0.08 0.08 91 1022.1
20191207043505 35 209 0.0 1.0 0.05 0.07 0.07 91 1022.2
20191207043008 35 208 0.0 2.0 0.05 0.07 0.07 90 1022.2
20191207042507 35 208 1.0 2.0 0.06 0.07 0.07 90 1022.2
20191207041007 35 208 0.0 2.0 0.06 0.06 0.06 90 1022.5
20191207040507 35 208 1.0 2.0 0.05 0.06 0.06 90 1022.5
20191207035008 35 208 0.0 1.0 0.03 0.04 0.04 89 1022.5
20191207034507 35 209 0.0 1.0 0.02 0.03 0.03 89 1022.5
20191207033008 35 208 1.0 2.0 0.02 0.02 0.02 88 1022.6
20191207032507 35 208 1.0 2.0 0.01 0.02 0.02 88 1022.8
20191207031507 35 208 1.0 2.0 0.00 0.01 0.01 88 1022.9
20191207031007 35 208 1.0 2.0 0.01 0.01 0.01 88 1023.0
20191207025506 35 208 0.0 2.0 0.01 0.01 0.01 88 1023.0
20191207025006 35 208 1.0 2.0 0.01 0.01 0.01 88 1023.0
20191207024507 35 208 1.0 2.0 0.01 0.01 0.01 87 1023.0
20191207024006 35 208 1.0 2.0 0.01 0.01 0.01 87 1023.0
20191207023507 35 211 1.0 3.0 0.01 0.01 0.01 87 1022.9
20191207023006 35 248 1.0 3.0 0.01 0.01 0.01 87 1023.2
20191207022506 36 282 1.0 2.0 0.01 0.01 0.01 88 1023.2
20191207022007 36 283 0.0 1.0 0.01 0.01 0.01 87 1023.2
20191207021507 36 283 0.0 1.0 0.01 0.01 0.01 88 1023.3
20191207020508 36 283 0.0 1.0 0.00 0.00 0.00 87 1023.3
20191207020007 36 283 0.0 1.0 0.00 0.00 0.00 87 1023.5
20191207015508 36 283 0.0 2.0 0.00 0.00 0.00 87 1023.5
20191207015008 36 283 0.0 2.0 0.00 0.00 0.00 87 1023.6
20191207014507 36 283 0.0 2.0 0.00 0.00 0.00 87 1023.7
20191207013007 36 283 0.0 3.0 0.00 0.00 0.00 87 1023.8
20191207012008 36 283 0.0 2.0 0.00 0.00 0.00 87 1023.8
20191207011007 35 0 0.0 0.0 0.00 0.00 0.00 87 1023.9
20191207010507 35 283 0.0 1.0 0.00 0.00 0.00 87 1024.0
20191207010006 35 283 0.0 1.0 0.00 0.00 0.00 87 1024.1
20191207005508 35 283 0.0 1.0 0.00 0.00 0.00 87 1024.0
20191207004008 35 283 0.0 1.0 0.00 0.00 0.00 87 1024.3
20191207003508 35 283 0.0 2.0 0.00 0.00 0.00 87 1024.3
20191207003006 35 283 1.0 2.0 0.00 0.00 0.00 86 1024.3